COSMOS 1275 DEB

Satellite information

Favourite Embed

Satellite Type and Status

DEBRISIN ORBIT

Key statistics

Satellite COSMOS 1275 DEB at a glance.

Uptime

16264

Days in orbit

Revolutions

≈ 14.0

Per day

Orbit

LEO

Low Earth Orbit

Inclination

82.9

Latest

Satellite identification and parameters

Extended collection of information and parameters for COSMOS 1275 DEB.

Object identification

Identified? True

Debris? True

Object name: COSMOS 1275 DEB

International designator: 1981-053G

Object number (NORAD): 12652

Object ID (CCSDS): 12652

Country: COMMONWEALTH OF INDEPENDENT STATES (CIS)

Current information (Y/N): Y

RCS size: SMALL

Orbital parameters

Period: 102.684 minutes

Inclination: 82.9375 deg

SMA: 7263.756 km

Apoapsis: 923.836 km

Periapsis: 847.405 km

RAAN: 140.7902 deg

Eccentricy: 0.00526113

Argument of periapsis: 158.2202 deg

Mean anomaly: 257.2501 deg

Mean motion: 14.02364455 rev/day

Mean motion (dot): 0.00003063 rev/day2

B* drag term: 0.0019620383 1/REarth

Two-line elements (TLE)

Creation date: Dec. 14, 2025, 3:07 a.m.

Reference frame: TEME

Reference center: EARTH

Epoch: Dec. 13, 2025, 10:52 a.m. UTC

TLE line 0: 0 COSMOS 1275 DEB

TLE line 1: 1 12652U 81053G 25347.45309678 .00003063 00000-0 19620-2 0 9998

TLE line 2: 2 12652 82.9375 140.7902 0052611 158.2202 257.2501 14.02364455169844

Live tracking on map

Real-time ground track for satellite COSMOS 1275 DEB.

In-orbit conjunctions

A list of the most updated potential collisions computed for object COSMOS 1275 DEB.

Target Orbit TCA Probability of collision Miss distance Type
THORAD AGENA D DEB SSO 2025-07-30 19:04:30 0.0008845507 77.0 (m) DEBRIS
COSMOS 1275 DEB LEO 2024-09-27 12:02:58 0.0005352721 336.0 (m) DEBRIS

Associated space launch

Navigation satellite providing location information for the Tsiklon-B navigation system

COSMOS 1275 DEB was lifted into orbit during the mission ‘Kosmos-3M | Parus 27’, on board a Kosmos-3M space rocket.

The launch took place on June 4, 1981, 3:41 p.m. from 132/2.

For more information about the launch, click the button.

Launch to space Kosmos-3M | Parus 27
Kosmos-3M | Parus 27

Agency: N/A

Status: Launch Successful

Launch date: June 4, 1981, 3:41 p.m. UTC

Rocket: Kosmos-3M

Launch pad: 132/2

Location: Plesetsk Cosmodrome, Russian Federation

...

Latest news about this satellite

There are no fresh news available about this satellite. Check back as we update our databases every day.


Newsletter sign-up

Weekly statistics, charts and insights to help you stay on top of the space industry.